Regional Weather Roundup
Issued by NWS

Home | Current Version | Previous Version | Text Only | Print | Product List | Glossary On
Versions: 1 2 3 4 5 6 7 8 9 10 11 12 13 14 15 16 17 18 19 20 21 22 23 24 25 26 27 28 29 30 31 32 33 34 35 36 37 38 39 40 41 42 43 44 45 46 47 48 49 50
000
ASUS44 KFWD 031701
RWRTX
NORTH TEXAS HOURLY WEATHER ROUNDUP
NATIONAL WEATHER SERVICE FORT WORTH TX
1200 PM CDT THU SEP 03 2015

NOTE: "FAIR" INDICATES FEW OR NO CLOUDS BELOW 12,000 FEET WITH NO
SIGNIFICANT WEATHER AND/OR OBSTRUCTIONS TO VISIBILITY.

TXZ118-119-031800-
DALLAS/FORT WORTH METROPLEX

CITY           SKY/WX    TMP DP  RH WIND       PRES   REMARKS
DFW AIRPORT    PTSUNNY   90  63  40 S8        29.98F HX  91
DALLAS LOVE    PTSUNNY   89  64  43 SE7       29.98F HX  90
FTW MEACHAM    SUNNY     90  66  45 SE10      29.99S HX  92
DAL-EXECUTIVE  SUNNY     88  65  46 SE8       29.99S HX  90
FTW-ALLIANCE   MOSUNNY   90  65  43 VRB7      29.99S HX  92
FTW-NAS-JRB    MOSUNNY   88  66  48 SE8       29.99F HX  90
FTW-SPINKS     MOSUNNY   88  66  48 SE8       30.01S HX  90
ARLINGTON      SUNNY     88  63  43 E9        29.99S
GRAND PRAIRIE  SUNNY     88  66  48 E9        30.00S HX  90
ADDISON        MOSUNNY   88  61  40 SE10      30.00S
MESQUITE       SUNNY     88  64  45 E6        29.99S
LANCASTER      SUNNY     88  64  44 SE6       30.00S
$$

TXZ091>094-102>105-117-120-121-131>134-031800-
NORTH CENTRAL TEXAS

CITY           SKY/WX    TMP DP  RH WIND       PRES   REMARKS
SHRMAN/DENISON SUNNY     90  65  43 SE8       30.01F HX  92
BRIDGEPORT     SUNNY     89  67  48 S9        30.02S HX  92
DENTON         MOSUNNY   87  66  49 SE8       29.99F
MCKINNEY       SUNNY     88  65  46 SE9       29.99F HX  90
ROCKWALL       SUNNY     88  66  48 S6        29.98S HX  90
TERRELL        SUNNY     88  67  49 SE10      29.99F HX  91
WAXAHACHIE     SUNNY     88  68  50 SE9       30.00F HX  91
CLEBURNE       SUNNY     86  70  58 VRB6G13   30.02S HX  90
$$

TXZ083>090-098>101-113>116-127>130-139>142-154-155-031800-
WESTERN NORTH TEXAS

CITY           SKY/WX    TMP DP  RH WIND       PRES   REMARKS
WICHITA FALLS  MOSUNNY   90  64  42 S12       29.97F HX  91
WF-KICKAPOO    MOSUNNY   92  59  33 S12       29.99F HX  91
VERNON         SUNNY     91  56  30 S14       29.97F
ABILENE        SUNNY     87  65  47 SW12      30.02F
ABILENE-DYESS  SUNNY     88  66  48 S8        30.00F HX  90
MINERAL WELLS  SUNNY     88  67  49 SE10      29.99S HX  91
STEPHENVILLE   SUNNY     85  66  51 SE3       30.04S
COMANCHE       SUNNY     89  64  44 CALM      30.01F HX  90
COLEMAN        SUNNY     86  66  50 CALM      30.03S
$$

TXZ143>147-156>162-174-175-031800-
CENTRAL TEXAS

CITY           SKY/WX    TMP DP  RH WIND       PRES   REMARKS
WACO           MOSUNNY   86  69  56 SE6       29.99S HX  90
WACO-TSTC      PTSUNNY   84  72  65 CALM      29.99S
WACO-MCGREGOR  PTSUNNY   85  70  60 SE9       29.99S
CORSICANA      MOSUNNY   86  70  58 SE7       30.00S HX  90
MEXIA          PTSUNNY   85  70  60 E13       29.99S
HEARNE         MOSUNNY   85  71  63 CALM      29.99F HX  90
TEMPLE         PTSUNNY   84  68  58 SW6       29.99F
KILLEEN        PTSUNNY   85  68  56 S6        29.99S
KILLEEN-SKYLRK MOSUNNY   84  68  58 SE6       29.99S
FORT HOOD      MOSUNNY   86  69  56 SE5       29.98S
HAMILTON       SUNNY     88  65  45 SE9       30.02S
$$

TXZ095>097-106>112-122>126-135>138-148>153-164>167-031800-
EAST TEXAS

CITY           SKY/WX    TMP DP  RH WIND       PRES   REMARKS
PARIS          SUNNY     90  64  43 S9        30.01S HX  91
GILMER         SUNNY     84  70  61 E6        30.00F
MINEOLA        SUNNY     88  68  51 SE7       30.01S HX  91
TYLER          MOSUNNY   86  69  56 SE10      30.00F HX  90
LONGVIEW       MOSUNNY   86  71  60 S9        30.00F HX  91
MARSHALL       MOSUNNY   89  75  63 S5        30.02F HX  98
ATHENS         PTSUNNY   81  70  69 SE8       29.99S
PALESTINE      CLOUDY    82  71  68 SE3       30.01S
JACKSONVILLE   PTSUNNY   85  69  57 S9        30.03S
CENTER         FAIR      87  71  58 SW5       29.99F HX  92
NACOGDOCHES    PTSUNNY   82  73  74 E3        30.00F
LUFKIN         MOSUNNY   86  71  60 E9        29.98F HX  91
$$

SUPPLEMENTAL OBSERVATIONS (CENTRAL)

CITY           SKY/WX    TMP DP  RH WIND       PRES   REMARKS
$$

SUPPLEMENTAL OBSERVATIONS (WEST)

CITY           SKY/WX    TMP DP  RH WIND       PRES   REMARKS
$$

SUPPLEMENTAL OBSERVATIONS (EAST)

CITY           SKY/WX    TMP DP  RH WIND       PRES   REMARKS
$$

SUPPLEMENTAL OBSERVATIONS ARE A COLLECTION OF AUTOMATED INSTRUMENTS
THAT ARE MAINTAINED BY A VARIETY OF FEDERAL AND STATE AGENCIES.
CERTAIN ELEMENTS...SUCH AS HUMIDITY VALUES AND SUSTAINED WIND
SPEEDS...MAY BE APPROXIMATED.




USA.gov is the U.S. government's official web portal to all federal, state and local government web resources and services.